[[{"header":{"parameterUnit":"m.s-1","parameterCategory":1,"la1":30.2991,"la2":30.254,"lo1":-89.0895,"lo2":-89.0444,"dy":0.0017,"dx":0.0017,"nx":28,"ny":28,"refTime":"2024-10-18T09:00:00:Z","depth":0,"parameterNumber":2,"parameterNumberName":"U-component_of_WINDS"},"data":[0,0,0,0,0,0,0,0,0,0,0,0,0,0,0,0,0,0,0,0,0,0,0,0,0,0,0,0,0,0,0,0,0,0,0,0,0,0,0,0,0,0,0,0,0,0,0,0,0,0,0,0,0,0,0,0,0,0,-4.1017,-4.1017,0,-4.102,-4.102,-4.102,-4.0878,-4.0875,-4.0871,-4.0867,-4.087,-4.0874,-4.0877,0,0,0,0,0,0,0,0,0,0,0,0,0,-4.0885,-4.0888,-4.1017,-4.1017,-4.1017,-4.102,-4.102,-4.102,-4.0879,-4.0875,-4.087,-4.0866,-4.0869,-4.0873,-4.0878,0,0,0,0,0,0,0,0,0,0,0,0,0,-4.0921,-4.0889,-4.1017,-4.0947,-4.094,-4.102,-4.102,-4.102,-4.088,-4.0874,-4.0869,-4.0863,-4.0868,-4.0873,-4.0878,-4.1025,0,0,-4.0895,-4.0897,0,0,0,0,0,0,0,0,-4.0919,-4.0926,-4.0957,-4.0952,-4.0945,-4.0943,-4.0975,-4.1022,-4.0882,-4.0903,-4.0867,-4.0861,-4.0899,-4.0901,-4.0914,-4.1025,-4.1025,-4.0895,-4.0898,-4.0901,-4.0902,0,0,0,0,0,0,0,-4.0917,-4.0925,-4.1018,-4.0957,-4.095,-4.0914,-4.0913,-4.0983,-4.0933,-4.0901,-4.089,-4.0893,-4.0894,-4.091,-4.0914,-4.1025,-4.0895,-4.09,-4.0903,-4.0905,-4.1256,-4.1261,0,0,0,0,0,0,-4.0924,-4.0924,-4.1018,-4.1018,-4.0918,-4.0921,-4.092,-4.0949,-4.0931,-4.0923,-4.0898,-4.0886,-4.0903,-4.0907,-4.0913,-4.1083,-4.0901,-4.0906,-4.0909,-4.125,-4.1257,-4.1264,0,0,0,0,0,0,-4.0922,-4.0934,-4.1018,-4.0968,-4.0976,-4.093,-4.0964,-4.0952,-4.0967,-4.0929,-4.0919,-4.0923,-4.0899,-4.0905,-4.0998,-4.1082,-4.0908,-4.0913,-4.1242,-4.1252,-4.126,-4.1426,0,0,0,0,0,0,-4.0919,-4.0934,-4.099,-4.097,-4.0979,-4.1104,-4.0969,-4.0957,-4.0977,-4.0962,-4.095,-4.0942,-4.0895,-4.0991,-4.1004,-4.1086,-4.0917,-4.1235,-4.1247,-4.1257,-4.1413,-4.144,-4.1463,0,0,0,0,0,-4.0914,-4.1036,-4.0993,-4.1005,-4.1048,-4.1109,-4.1114,-4.1057,-4.0985,-4.104,-4.1015,-4.0943,-4.1071,-4.1002,-4.1015,-4.11,-4.1229,-4.1243,-4.1257,-4.1402,-4.1434,-4.1462,0,0,0,0,0,0,-4.1065,-4.1032,-4.0984,-4.1103,-4.111,-4.1085,-4.1153,-4.1093,-4.112,-4.1105,-4.1033,-4.1031,-4.1136,-4.1127,-4.105,-4.1241,-4.1137,-4.1154,-4.1243,-4.1274,-4.1298,-4.1298,-4.0922,0,0,0,0,0,-4.1113,-4.1165,-4.1133,-4.1241,-4.1247,-4.12,-4.1224,-4.118,-4.1184,-4.1186,-4.1167,-4.1174,-4.1215,-4.1244,-4.1279,-4.1411,-4.1406,-4.1476,-4.1501,-4.1521,-4.1537,-4.1606,-4.1636,-4.1308,-4.1308,-4.1308,0,0,-4.1211,-4.1199,-4.1236,-4.1271,-4.1271,-4.1327,-4.1203,-4.1267,-4.1307,-4.1195,-4.1281,-4.1269,-4.1271,-4.1384,-4.1432,-4.1379,-4.1626,-4.1539,-4.1556,-4.156,-4.1623,-4.1654,-4.1682,-4.1318,-4.1316,-4.1315,0,0,-4.1418,-4.1414,-4.1504,-4.1507,-4.1508,-4.1476,-4.1498,-4.1482,-4.1469,-4.1555,-4.1471,-4.1518,-4.1591,-4.1596,-4.1608,-4.1817,-4.1751,-4.1831,-4.196,-4.2028,-4.2054,-4.2077,-4.2151,-4.2179,-4.1846,-4.1846,-4.1847,0,-4.1539,-4.162,-4.1557,-4.1627,-4.1645,-4.1546,-4.1636,-4.1641,-4.1655,-4.1669,-4.1609,-4.1699,-4.1693,-4.1805,-4.1857,-4.187,-4.1892,-4.1832,-4.2056,-4.2077,-4.2098,-4.2168,-4.2196,-4.1856,-4.1855,-4.1854,-4.1853,0,-4.1769,-4.1827,-4.1899,-4.1915,-4.194,-4.202,-4.1969,-4.2002,-4.1956,-4.193,-4.2018,-4.2008,-4.204,-4.2064,-4.2019,-4.217,-4.2137,-4.2068,-4.1962,-4.214,-4.2204,-4.2231,-4.187,-4.1866,-4.1864,-4.1861,0,0,-4.2072,-4.2052,-4.208,-4.2086,-4.208,-4.2123,-4.2198,-4.223,-4.226,-4.2272,-4.2333,-4.2397,-4.2333,-4.2347,-4.2301,-4.2361,-4.2528,-4.2284,-4.2283,-4.233,-4.2694,-4.2746,-4.2778,-4.2484,-4.2489,-4.2493,-4.2694,0,-4.2272,-4.24,-4.2346,-4.2478,-4.253,-4.2437,-4.2502,-4.2506,-4.2484,-4.2524,-4.2499,-4.2546,-4.2458,-4.2465,-4.252,-4.2496,-4.26,-4.2481,-4.254,-4.2543,-4.2543,-4.2812,-4.2868,-4.3058,-4.2719,-4.2723,-4.2726,0,-4.2524,-4.2547,-4.2686,-4.2671,-4.2691,-4.275,-4.2775,-4.2815,-4.2817,-4.2797,-4.2813,-4.2754,-4.2826,-4.2721,-4.2819,-4.2739,-4.276,-4.2752,-4.2758,-4.2761,-4.2645,-4.2823,-4.3117,-4.3146,-4.2765,-4.2762,-4.2759,0,-4.2731,-4.2797,-4.2888,-4.2896,-4.2881,-4.2925,-4.2921,-4.2917,-4.294,-4.2961,-4.2975,-4.3005,-4.3021,-4.3046,-4.2996,-4.2924,-4.3102,-4.2992,-4.3086,-4.3088,-4.3128,-4.3126,-4.343,-4.3142,-4.3141,-4.3141,-4.314,0,-4.2961,-4.3049,-4.2981,-4.3037,-4.3133,-4.3069,-4.3166,-4.3151,-4.3149,-4.32,-4.3121,-4.3171,-4.3102,-4.3146,-4.3107,-4.3195,-4.3202,-4.3188,-4.3177,-4.3195,-4.3197,-4.3208,-4.3194,-4.3148,-4.3147,-4.3145,-4.3144,0,-4.3208,-4.3166,-4.3259,-4.3238,-4.3234,-4.3306,-4.3287,-4.3338,-4.331,-4.3376,-4.3388,-4.3344,-4.3391,-4.3344,-4.3388,-4.3362,-4.3479,-4.3448,-4.3479,-4.347,-4.3567,-4.3559,-4.3888,-4.3928,-4.3615,-4.3618,-4.3621,0,-4.3358,-4.3424,-4.3409,-4.3438,-4.3439,-4.3487,-4.3509,-4.3449,-4.3476,-4.3483,-4.3534,-4.3573,-4.3602,-4.3681,-4.3653,-4.3686,-4.3656,-4.3769,-4.366,-4.3677,-4.3658,-4.3655,-4.3661,-4.3791,-4.3795,-4.3798,-4.3801,0,-4.3628,-4.3604,-4.364,-4.367,-4.3699,-4.3719,-4.3733,-4.3761,-4.3699,-4.3733,-4.378,-4.3803,-4.3847,-4.3888,-4.3912,-4.3907,-4.3845,-4.3835,-4.3859,-4.3878,-4.3893,-4.3887,-4.3539,-4.3828,-4.3825,-4.3823,-4.3822,-4.382,-4.3831,-4.3885,-4.3884,-4.3927,-4.3931,-4.3946,-4.3992,-4.3971,-4.4009,-4.4041,-4.4003,-4.4061,-4.406,-4.4087,-4.4089,-4.4133,-4.4085,-4.412,-4.4128,-4.4138,-4.4152,-4.3886,-4.4138,-4.4137,-4.4136,-4.4135,-4.4135,0,-4.4097,-4.4092,-4.4132,-4.4154,-4.4188,-4.4126,-4.4138,-4.417,-4.4222,-4.4228,-4.4258,-4.4312,-4.4351,-4.4326,-4.436,-4.44,-4.4372,-4.4411,-4.4407,-4.4407,-4.4193,-4.4169,-4.4433,-4.4433,-4.4433,-4.4433,-4.4432,-4.4432,-4.424,-4.4328,-4.4304,-4.4394,-4.4387,-4.4443,-4.4456,-4.4469,-4.4473,-4.4537,-4.4569,-4.4553,-4.4546,-4.4578,-4.4612,-4.4603,-4.4619,-4.4669,-4.4651,-4.4451,-4.4422,-4.4394,-4.4371,-4.4673,-4.4673,-4.486,-4.4862,-4.4864]},{"header":{"parameterUnit":"m.s-1","parameterCategory":1,"la1":30.2991,"la2":30.254,"lo1":-89.0895,"lo2":-89.0444,"dy":0.0017,"dx":0.0017,"nx":28,"ny":28,"refTime":"2024-10-18T09:00:00:Z","depth":0,"parameterNumber":3,"parameterNumberName":"V-component_of_WINDS"},"data":[0,0,0,0,0,0,0,0,0,0,0,0,0,0,0,0,0,0,0,0,0,0,0,0,0,0,0,0,0,0,0,0,0,0,0,0,0,0,0,0,0,0,0,0,0,0,0,0,0,0,0,0,0,0,0,0,0,0,-1.9609,-1.9611,0,-1.9725,-1.9727,-1.9728,-1.9755,-1.9754,-1.9753,-1.9752,-1.987,-1.9873,-1.9877,0,0,0,0,0,0,0,0,0,0,0,0,0,-1.9408,-1.9411,-1.9609,-1.9611,-1.9612,-1.9725,-1.9727,-1.9728,-1.9755,-1.9754,-1.9753,-1.9752,-1.9868,-1.9873,-1.9878,0,0,0,0,0,0,0,0,0,0,0,0,0,-1.9507,-1.9412,-1.9609,-1.9639,-1.9643,-1.9725,-1.9727,-1.9729,-1.9755,-1.9754,-1.9753,-1.9752,-1.9867,-1.9873,-1.9878,-1.9938,0,0,-1.9896,-1.9899,0,0,0,0,0,0,0,0,-1.9501,-1.9514,-1.9633,-1.9637,-1.9642,-1.9724,-1.9699,-1.9799,-1.9755,-1.9712,-1.9752,-1.9751,-1.9822,-1.9832,-1.9856,-1.9944,-1.9949,-1.9896,-1.99,-1.9903,-1.9904,0,0,0,0,0,0,0,-1.9494,-1.9509,-1.9655,-1.9635,-1.964,-1.9646,-1.9659,-1.9718,-1.9773,-1.9716,-1.9718,-1.9732,-1.9824,-1.985,-1.9859,-1.995,-1.9896,-1.9901,-1.9905,-1.9907,-2.0093,-2.0094,0,0,0,0,0,0,-1.9482,-1.9503,-1.9651,-1.9659,-1.9567,-1.965,-1.9665,-1.9699,-1.9772,-1.9782,-1.9733,-1.9733,-1.9841,-1.9852,-1.9863,-1.9938,-1.9902,-1.9908,-1.9911,-2.0091,-2.0093,-2.0094,0,0,0,0,0,0,-1.9478,-1.9495,-1.9647,-1.9582,-1.9601,-1.9655,-1.9694,-1.9702,-1.9728,-1.9785,-1.9794,-1.975,-1.9841,-1.9855,-1.9919,-1.9943,-1.9911,-1.9916,-2.0089,-2.0092,-2.0094,-2.0088,0,0,0,0,0,0,-1.9472,-1.9494,-1.9517,-1.9582,-1.9605,-1.9702,-1.9695,-1.9705,-1.9738,-1.9739,-1.9803,-1.9812,-1.9841,-1.9911,-1.9925,-1.995,-1.992,-2.0088,-2.009,-2.0093,-2.0087,-2.009,-2.0093,0,0,0,0,0,-1.9465,-1.9511,-1.9519,-1.9536,-1.9636,-1.9703,-1.9716,-1.9748,-1.974,-1.9764,-1.98,-1.981,-1.9937,-1.9917,-1.9934,-1.996,-2.0086,-2.009,-2.0093,-2.0085,-2.0089,-2.0093,0,0,0,0,0,0,-1.9447,-1.952,-1.9529,-1.9598,-1.9644,-1.9707,-1.9739,-1.9751,-1.9801,-1.9799,-1.9837,-1.9851,-1.9913,-1.9943,-1.9919,-2.0022,-2.0012,-2.0018,-2.0,-2.0005,-2.0008,-1.9999,-1.9925,0,0,0,0,0,-1.9452,-1.9501,-1.9561,-1.9616,-1.9639,-1.9685,-1.9715,-1.9736,-1.9785,-1.9805,-1.9845,-1.9892,-1.9943,-1.9975,-2.0025,-2.0091,-2.0105,-2.0118,-2.0121,-2.0123,-2.0128,-2.0166,-2.0172,-2.0105,-2.0105,-2.0105,0,0,-1.9461,-1.9507,-1.9535,-1.9614,-1.9652,-1.9701,-1.9701,-1.9753,-1.979,-1.9812,-1.9876,-1.9907,-1.9962,-2.0027,-2.0058,-2.0054,-2.015,-2.0127,-2.0128,-2.0133,-2.0169,-2.0176,-2.0181,-2.0107,-2.0107,-2.0106,0,0,-1.9503,-1.9542,-1.9593,-1.9631,-1.9689,-1.9719,-1.9731,-1.9792,-1.9814,-1.9879,-1.9896,-1.994,-2.0026,-2.0064,-2.0095,-2.0151,-2.0161,-2.0165,-2.0182,-2.0218,-2.0223,-2.0228,-2.0248,-2.0254,-2.0171,-2.0171,-2.0171,0,-1.9507,-1.9583,-1.9616,-1.9668,-1.9702,-1.9724,-1.9775,-1.981,-1.9881,-1.9903,-1.9898,-2.0007,-2.0045,-2.012,-2.0133,-2.0157,-2.0172,-2.0159,-2.022,-2.0225,-2.023,-2.0249,-2.0257,-2.0171,-2.0171,-2.0171,-2.0171,0,-1.9585,-1.9637,-1.967,-1.9739,-1.9776,-1.9827,-1.9867,-1.9901,-1.9918,-1.9948,-2.0013,-2.006,-2.0119,-2.0138,-2.0155,-2.0215,-2.0211,-2.0212,-2.0203,-2.0236,-2.0255,-2.0262,-2.0171,-2.0171,-2.0171,-2.0171,0,0,-1.962,-1.9706,-1.9718,-1.9749,-1.9814,-1.9855,-1.9906,-1.9965,-1.9993,-2.0041,-2.0084,-2.0156,-2.0158,-2.0192,-2.0214,-2.0245,-2.0286,-2.0242,-2.0244,-2.0249,-2.0355,-2.0354,-2.0362,-2.0293,-2.0295,-2.0296,-2.035,0,-1.9671,-1.9764,-1.9795,-1.9872,-1.9921,-1.9942,-1.9987,-2.0031,-2.0061,-2.0105,-2.0138,-2.0188,-2.0186,-2.0207,-2.0239,-2.0274,-2.0308,-2.0271,-2.0334,-2.0336,-2.0321,-2.0372,-2.0372,-2.0421,-2.0358,-2.0359,-2.036,0,-1.9742,-1.9792,-1.9874,-1.9933,-1.9954,-1.9994,-2.005,-2.0092,-2.0142,-2.0162,-2.02,-2.0219,-2.0273,-2.0259,-2.0333,-2.0307,-2.0335,-2.0356,-2.0359,-2.0366,-2.0351,-2.0381,-2.0437,-2.0444,-2.0372,-2.0371,-2.037,0,-1.976,-1.9847,-1.9907,-1.9933,-2.0003,-2.0031,-2.0061,-2.011,-2.0143,-2.0192,-2.0213,-2.0267,-2.0297,-2.0337,-2.037,-2.0357,-2.0441,-2.0431,-2.0459,-2.0458,-2.0476,-2.0475,-2.0537,-2.0493,-2.0493,-2.0493,-2.0492,0,-1.9814,-1.9863,-1.9916,-1.9954,-2.0009,-2.0044,-2.0098,-2.0129,-2.0173,-2.0216,-2.0237,-2.0277,-2.0318,-2.0363,-2.0388,-2.0446,-2.0459,-2.0476,-2.0482,-2.0474,-2.0472,-2.0493,-2.0491,-2.0495,-2.0494,-2.0494,-2.0493,0,-1.9844,-1.9881,-1.9949,-2.0009,-2.0026,-2.0064,-2.0116,-2.0152,-2.0182,-2.0236,-2.0251,-2.0298,-2.0352,-2.0388,-2.0457,-2.0474,-2.0537,-2.0542,-2.052,-2.0523,-2.0549,-2.0547,-2.0628,-2.0641,-2.0587,-2.0588,-2.0588,0,-1.9876,-1.9914,-1.9979,-2.001,-2.004,-2.0089,-2.0123,-2.0158,-2.0192,-2.0252,-2.0281,-2.0337,-2.0383,-2.0468,-2.0508,-2.0561,-2.0568,-2.0593,-2.0576,-2.0567,-2.0569,-2.0566,-2.057,-2.0596,-2.0596,-2.0597,-2.0597,0,-1.9928,-1.9945,-1.9993,-2.0048,-2.0088,-2.0133,-2.0177,-2.0201,-2.0244,-2.0281,-2.0337,-2.0373,-2.0443,-2.0498,-2.0554,-2.0584,-2.0598,-2.0602,-2.0611,-2.0604,-2.059,-2.0598,-2.0528,-2.06,-2.06,-2.0599,-2.0599,-2.0599,-1.9961,-1.9996,-2.0047,-2.01,-2.0137,-2.0178,-2.0216,-2.025,-2.0297,-2.0358,-2.0375,-2.0433,-2.0482,-2.0559,-2.059,-2.0636,-2.0634,-2.0647,-2.0651,-2.0653,-2.0654,-2.0582,-2.0646,-2.0646,-2.0646,-2.0646,-2.0646,0,-2.0015,-2.0049,-2.0097,-2.0159,-2.02,-2.0209,-2.0259,-2.0293,-2.0344,-2.0388,-2.0433,-2.0497,-2.055,-2.0594,-2.0648,-2.0676,-2.0684,-2.0689,-2.0688,-2.0695,-2.0652,-2.0639,-2.0682,-2.0682,-2.0682,-2.0682,-2.0682,-2.0682,-2.0048,-2.0108,-2.0131,-2.0209,-2.0242,-2.03,-2.0327,-2.0365,-2.0401,-2.0471,-2.0515,-2.0544,-2.0588,-2.0646,-2.0694,-2.0706,-2.0725,-2.0729,-2.0742,-2.0702,-2.0698,-2.0694,-2.0682,-2.0733,-2.0733,-2.0781,-2.0781,-2.0782]}]]